User: anonymous   Login
Location: Unspecified
(0.0000°N, 0.0000°E)
Time: 00:16:55
(UTC+00:00)
Language:

PRISM - Orbit

View from above orbital plane
View from above orbital plane
View from above satellite
View from above satellite

Ground track
Ground track

The orbit data is extracted from the following two-line orbital elements,

1 33493U 09002B   17328.44395701  .00001117  00000-0  10520-3 0  9998
2 33493  98.1472 217.4633 0013949 274.1471  85.8165 14.95959485479735
Epoch (UTC): 24 November 2017 10:39:17
Eccentricity: 0.0013949
inclination: 98.1472°
perigee height: 569 km
apogee height: 589 km
right ascension of ascending node: 217.4633°
argument of perigee: 274.1471°
revolutions per day: 14.95959485
mean anomaly at epoch: 85.8165°
orbit number at epoch: 47973

The dashed part of the orbit path shows where the satellite is in the earth's shadow,  

DLR